| time (UTC) | temp F | wind direction | speed knots | gust knots | rain 1hr in | rain 24hr in | rain mn in | humidity % | barometer mb |
| 20260503180051 | 61 | 265 | 7.8 | 14.8 | 0.00 | 0.00 | 0.00 | 35 | 1010.1 |
| 20260503174538 | 61 | 284 | 6.1 | 16.5 | 0.00 | 0.00 | 0.00 | 33 | 1010.2 |
| 20260503173038 | 60 | 257 | 7.0 | 13.9 | 0.00 | 0.00 | 0.00 | 34 | 1010.2 |
| 20260503171548 | 60 | 277 | 7.0 | 16.5 | 0.00 | 0.00 | 0.00 | 34 | 1010.4 |
| 20260503081556 | 34 | 0 | 0.0 | 0.0 | 0.00 | 0.00 | 0.00 | 69 | 1013.7 |
| 20260503071538 | 36 | 0 | 0.0 | 0.0 | 0.00 | 0.00 | 0.00 | 65 | 1013.7 |
| 20260503060110 | 32 | 0 | 0.0 | 0.0 | 0.00 | 0.00 | 0.00 | 80 | 1013.9 |
| 20260503054554 | 32 | 0 | 0.0 | 0.0 | 0.00 | 0.00 | 0.00 | 81 | 1014.0 |
| 20260503053046 | 32 | 0 | 0.0 | 0.0 | 0.00 | 0.00 | 0.00 | 80 | 1014.2 |
| 20260503051543 | 32 | 0 | 0.0 | 0.0 | 0.00 | 0.00 | 0.00 | 79 | 1014.3 |
| 20260503050041 | 33 | 0 | 0.0 | 0.0 | 0.00 | 0.00 | 0.00 | 78 | 1014.4 |
| 20260503044548 | 33 | 0 | 0.0 | 0.0 | 0.00 | 0.00 | 0.00 | 77 | 1014.5 |
| 20260503043038 | 34 | 0 | 0.0 | 0.0 | 0.00 | 0.00 | 0.00 | 75 | 1014.5 |
| 20260503041536 | 34 | 0 | 0.0 | 0.0 | 0.00 | 0.00 | 0.00 | 73 | 1014.7 |
| 20260503040045 | 35 | 0 | 0.0 | 0.0 | 0.00 | 0.00 | 0.00 | 71 | 1014.7 |
| 20260503034541 | 36 | 0 | 0.0 | 0.0 | 0.00 | 0.00 | 0.00 | 67 | 1014.8 |
| 20260503033038 | 37 | 0 | 0.0 | 0.0 | 0.00 | 0.00 | 0.00 | 65 | 1014.9 |
| 20260503031544 | 37 | 0 | 0.0 | 0.0 | 0.00 | 0.00 | 0.00 | 64 | 1015.0 |
| 20260503030045 | 38 | 0 | 0.0 | 2.6 | 0.00 | 0.00 | 0.00 | 64 | 1015.0 |
| 20260503024545 | 38 | 0 | 0.0 | 1.7 | 0.00 | 0.00 | 0.00 | 63 | 1015.1 |
| 20260503023044 | 38 | 0 | 0.0 | 0.0 | 0.00 | 0.00 | 0.00 | 62 | 1015.3 |
| 20260503021541 | 39 | 0 | 0.0 | 0.0 | 0.00 | 0.00 | 0.00 | 61 | 1015.3 |
| 20260503020041 | 39 | 0 | 0.0 | 0.9 | 0.00 | 0.00 | 0.00 | 60 | 1015.2 |
| 20260503014538 | 39 | 0 | 0.0 | 3.5 | 0.00 | 0.00 | 0.00 | 61 | 1015.3 |
| 20260503013038 | 39 | 0 | 0.0 | 0.0 | 0.00 | 0.00 | 0.00 | 62 | 1015.3 |
| 20260503011536 | 39 | 0 | 0.0 | 3.5 | 0.00 | 0.00 | 0.00 | 60 | 1015.4 |
| 20260503010044 | 41 | 0 | 0.0 | 0.0 | 0.00 | 0.00 | 0.00 | 56 | 1015.3 |
| 20260503004605 | 41 | 0 | 0.0 | 3.5 | 0.00 | 0.00 | 0.00 | 56 | 1015.2 |
| 20260503003038 | 42 | 0 | 0.0 | 2.6 | 0.00 | 0.00 | 0.00 | 54 | 1015.2 |
| 20260503001547 | 44 | 0 | 0.0 | 3.5 | 0.00 | 0.00 | 0.00 | 51 | 1015.2 |
| 20260503000039 | 45 | 0 | 0.0 | 5.2 | 0.00 | 0.00 | 0.00 | 47 | 1015.2 |
| 20260502234548 | 46 | 107 | 0.9 | 6.1 | 0.00 | 0.00 | 0.00 | 46 | 1015.1 |
| 20260502233044 | 47 | 0 | 0.0 | 5.2 | 0.00 | 0.00 | 0.00 | 46 | 1015.3 |
| 20260502231543 | 46 | 0 | 0.0 | 7.0 | 0.00 | 0.00 | 0.00 | 46 | 1015.3 |
| 20260502230040 | 46 | 0 | 0.0 | 4.3 | 0.00 | 0.00 | 0.00 | 47 | 1015.3 |
| 20260502224539 | 46 | 80 | 1.7 | 8.7 | 0.00 | 0.00 | 0.00 | 45 | 1015.3 |
| 20260502223047 | 46 | 300 | 0.9 | 5.2 | 0.00 | 0.00 | 0.00 | 40 | 1015.3 |
| 20260502221545 | 46 | 268 | 2.6 | 6.1 | 0.00 | 0.00 | 0.00 | 39 | 1015.3 |
| 20260502220047 | 46 | 288 | 1.7 | 6.1 | 0.00 | 0.00 | 0.00 | 42 | 1015.4 |
| 20260502214544 | 46 | 0 | 0.9 | 4.3 | 0.00 | 0.00 | 0.00 | 41 | 1015.4 |
| 20260502213038 | 46 | 0 | 0.0 | 4.3 | 0.00 | 0.00 | 0.00 | 41 | 1015.4 |
| 20260502211539 | 46 | 334 | 2.6 | 8.7 | 0.00 | 0.00 | 0.00 | 40 | 1015.3 |
| 20260502210039 | 46 | 0 | 1.7 | 6.1 | 0.00 | 0.00 | 0.00 | 40 | 1015.3 |
| 20260502204545 | 46 | 308 | 1.7 | 6.1 | 0.00 | 0.00 | 0.00 | 42 | 1015.4 |
| 20260502203046 | 46 | 279 | 3.5 | 7.8 | 0.00 | 0.00 | 0.00 | 40 | 1015.5 |
| 20260502201548 | 46 | 277 | 3.5 | 8.7 | 0.00 | 0.00 | 0.00 | 42 | 1015.6 |
| 20260502200040 | 46 | 318 | 0.9 | 7.8 | 0.00 | 0.00 | 0.00 | 41 | 1015.9 |
| 20260502194543 | 46 | 0 | 0.0 | 2.6 | 0.00 | 0.00 | 0.00 | 44 | 1016.0 |
| 20260502193037 | 45 | 0 | 0.0 | 2.6 | 0.00 | 0.00 | 0.00 | 42 | 1016.2 |
| 20260502191544 | 45 | 0 | 0.0 | 7.0 | 0.00 | 0.00 | 0.00 | 42 | 1016.4 |
| 20260502190046 | 45 | 337 | 0.0 | 7.8 | 0.00 | 0.00 | 0.00 | 45 | 1016.5 |
| 20260502184553 | 44 | 0 | 3.5 | 9.6 | 0.00 | 0.00 | 0.00 | 45 | 1016.5 |
| 20260502183040 | 44 | 298 | 2.6 | 7.8 | 0.00 | 0.00 | 0.00 | 46 | 1016.5 |
| 20260502181547 | 44 | 259 | 2.6 | 7.8 | 0.00 | 0.00 | 0.00 | 46 | 1016.6 |